This is the latest recevied weather packets stored in our database for station/object W6MAF. If no packets are shown the sender has not sent any weather packets the latest 10 day(s).
| Time | Temp. | Humidity | Pressure | Rain* | Wind** | Luminosity | Snow |
|---|---|---|---|---|---|---|---|
| 1787869744 | 34.44° C | 5% | - | 0 mm | 6.71 m/s, 295° | - | - |
| 1787869446 | 34.44° C | 5% | - | 0 mm | 5.36 m/s, 307° | - | - |
| 1787869149 | 33.89° C | 5% | - | 0 mm | 4.47 m/s, 333° | - | - |
| 1787868851 | 33.89° C | 5% | - | 0 mm | 2.68 m/s, 311° | - | - |
| 1787868607 | 33.89° C | 5% | - | 0 mm | 4.02 m/s, 291° | - | - |
| 1787868553 | 33.89° C | 5% | - | 0 mm | 4.02 m/s, 291° | - | - |
| 1787868255 | 33.89° C | 5% | - | 0 mm | 4.47 m/s, 302° | - | - |
| 1787867954 | 33.89° C | 5% | - | 0 mm | 3.13 m/s, 308° | - | - |
| 1787867656 | 34.44° C | 4% | - | 0 mm | 4.02 m/s, 287° | - | - |
| 1787867358 | 34.44° C | 4% | - | 0 mm | 4.47 m/s, 256° | - | - |
| 1787867061 | 35° C | 4% | - | 0 mm | 3.58 m/s, 300° | - | - |
| 1787866763 | 35.56° C | 4% | - | 0 mm | 2.24 m/s, 291° | - | - |
| 1787866465 | 35.56° C | 4% | - | 0 mm | 3.13 m/s, 332° | - | - |
| 1787866164 | 36.11° C | 3% | - | 0 mm | 4.02 m/s, 332° | - | - |
| 1787865866 | 36.67° C | 3% | - | 0 mm | 2.68 m/s, 246° | - | - |
| 1787865568 | 36.67° C | 3% | - | 0 mm | 2.24 m/s, 284° | - | - |
| 1787865271 | 36.67° C | 4% | - | 0 mm | 2.68 m/s, 323° | - | - |
| 1787864973 | 37.22° C | 3% | - | 0 mm | 1.34 m/s, 276° | - | - |
| 1787864675 | 37.22° C | 4% | - | 0 mm | 4.02 m/s, 274° | - | - |
| 1787864374 | 36.67° C | 4% | - | 0 mm | 2.68 m/s, 250° | - | - |
| 1787864076 | 36.67° C | 3% | - | 0 mm | 2.68 m/s, 295° | - | - |
| 1787863778 | 36.67° C | 3% | - | 0 mm | 2.24 m/s, 284° | - | - |
| 1787863481 | 36.67° C | 3% | - | 0 mm | 0.89 m/s, 336° | - | - |
| 1787863183 | 36.67° C | 3% | - | 0 mm | 4.02 m/s, 266° | - | - |
| 1787862922 | 37.22° C | 3% | - | 0 mm | 2.68 m/s, 294° | - | - |
* Rain latest hour (hover to see other rain measurements)
** Current wind speed in m/s (hover to see current wind gust speed)